Beaumont, TX

7:12 AM CDT on April 25, 2017 (GMT -0500)
Southeast Texas Regional

Weather History for KBPT - December, 2014

Change the Weather History Date:

Wednesday, December 31, 2014

  Actual Average Record
Temperature  
Mean Temperature 44 °F 52 °F  
Max Temperature 50 °F 62 °F 80 °F (2011)
Min Temperature 37 °F 43 °F 21 °F (1983)
Degree Days  
Heating Degree Days 21 13  
Month to date heating degree days 248 356  
Since 1 July heating degree days 485 550  
Cooling Degree Days 0 0  
Month to date cooling degree days 20 22  
Year to date cooling degree days 2931 2877  
Moisture  
Dew Point 34 °F    
Average Humidity 74    
Maximum Humidity 92    
Minimum Humidity 56    
Precipitation  
Precipitation 0.00 in 0.17 in 3.50 in (2016)
Month to date precipitation 3.14 5.29  
Year to date precipitation 51.85 60.47  
Snow  
Snow 0.00 in 0.00 in 0.00 in ()
Month to date snowfall 0.0 T  
Since 1 July snowfall 0.0 T  
Snow Depth 0.00 in    
Sea Level Pressure  
Sea Level Pressure 30.40 in    
Wind  
Wind Speed 13 mph (NNE)    
Max Wind Speed 22 mph    
Max Gust Speed 27 mph    
Visibility 10 miles    
Events      
T = Trace of Precipitation, MM = Missing Value Source: NWS Daily Summary

Daily Weather History Graph

Daily Weather History Graph

Search for Another Location

Airport or City:

Trip Planner

Search our weather history database for the weather conditions in past years. The results will help you decide how hot, cold, wet, or windy it might be!

Date:

Astronomy

Dec. 31, 2014 Rise Set
Actual Time 7:11 AM CST 5:26 PM CST
Civil Twilight 6:45 AM CST 5:53 PM CST
Nautical Twilight 6:15 AM CST 6:22 PM CST
Astronomical Twilight 5:46 AM CST 6:52 PM CST
Moon 2:08 PM CST (12/31) 2:50 AM CST (12/31)
Length of Visible Light 11h 07m
Length of Day
10h 15m
Waxing Gibbous, 80% of the Moon is Illuminated
Dec 31
Waxing Gibbous
Jan 4
Full
Jan 13
Last Quarter
Jan 20
New
Jan 26
First Quarter

Hourly Weather History & Observations

Time (CST) Temp. Windchill Dew Point Humidity Pressure Visibility Wind Dir Wind Speed Gust Speed Precip Events Conditions
12:53 AM 37.9 °F 31.5 °F 35.1 °F 89% 30.43 in 10.0 mi NNE 9.2 mph - N/A   Clear
1:53 AM 37.0 °F 29.8 °F 34.0 °F 89% 30.43 in 10.0 mi NNE 10.4 mph - N/A   Clear
2:53 AM 37.0 °F 28.5 °F 34.0 °F 89% 30.42 in 10.0 mi NNE 13.8 mph - N/A   Clear
3:53 AM 37.9 °F 28.9 °F 33.1 °F 83% 30.40 in 10.0 mi NE 16.1 mph 27.6 mph N/A   Clear
4:14 AM 37.9 °F 28.9 °F 33.1 °F 83% 30.41 in 10.0 mi NE 16.1 mph 24.2 mph N/A   Mostly Cloudy
4:49 AM 37.4 °F 28.9 °F 33.8 °F 87% 30.41 in 10.0 mi NE 13.8 mph 21.9 mph N/A   Partly Cloudy
4:53 AM 37.0 °F 27.4 °F 33.1 °F 86% 30.41 in 10.0 mi NE 17.3 mph 21.9 mph N/A   Partly Cloudy
5:53 AM 37.9 °F 29.6 °F 33.1 °F 83% 30.43 in 10.0 mi NE 13.8 mph - N/A   Mostly Cloudy
6:53 AM 37.9 °F 29.2 °F 32.0 °F 79% 30.44 in 10.0 mi NE 15.0 mph - N/A   Mostly Cloudy
7:53 AM 37.9 °F 30.9 °F 33.1 °F 83% 30.46 in 10.0 mi NE 10.4 mph - N/A   Overcast
8:53 AM 39.0 °F 31.4 °F 33.1 °F 79% 30.48 in 10.0 mi NNE 12.7 mph - N/A   Overcast
9:53 AM 41.0 °F 34.3 °F 33.1 °F 73% 30.48 in 10.0 mi NNE 11.5 mph - N/A   Overcast
10:53 AM 45.0 °F 40.6 °F 34.0 °F 65% 30.47 in 10.0 mi North 8.1 mph - N/A   Mostly Cloudy
11:53 AM 46.9 °F - 35.1 °F 63% 30.43 in 10.0 mi North 11.5 mph - N/A   Overcast
12:53 PM 48.0 °F - 34.0 °F 58% 30.39 in 10.0 mi North 9.2 mph - N/A   Overcast
1:53 PM 48.9 °F - 35.1 °F 59% 30.36 in 10.0 mi North 12.7 mph - N/A   Overcast
2:53 PM 50.0 °F - 35.1 °F 57% 30.35 in 10.0 mi North 10.4 mph - N/A   Overcast
3:53 PM 50.0 °F - 35.1 °F 57% 30.35 in 10.0 mi North 10.4 mph - N/A   Overcast
4:53 PM 48.9 °F - 36.0 °F 61% 30.35 in 10.0 mi North 11.5 mph - N/A   Overcast
5:53 PM 46.9 °F - 35.1 °F 63% 30.36 in 10.0 mi North 16.1 mph - N/A   Overcast
6:53 PM 46.9 °F - 34.0 °F 61% 30.36 in 10.0 mi NNE 17.3 mph 26.5 mph N/A   Overcast
7:53 PM 46.0 °F 39.9 °F 34.0 °F 63% 30.37 in 10.0 mi NNE 13.8 mph - N/A   Overcast
8:53 PM 46.0 °F 39.9 °F 35.1 °F 66% 30.38 in 10.0 mi NNE 13.8 mph - N/A   Overcast
9:53 PM 46.0 °F 39.3 °F 34.0 °F 63% 30.38 in 10.0 mi NNE 16.1 mph - N/A   Overcast
10:53 PM 45.0 °F 38.2 °F 34.0 °F 65% 30.37 in 10.0 mi NE 15.0 mph - N/A   Overcast
11:53 PM 45.0 °F 39.7 °F 34.0 °F 65% 30.34 in 10.0 mi NE 10.4 mph - N/A   Overcast